Home > Weather > Götzis > Past weeks

Flag for Austria Past Weather in Götzis, Vorarlberg, Austria — Yesterday and Last 2 Weeks

Now
66 °F

Mild.


Feels Like: 66 °F
Forecast: 60 / 80 °F
Wind: 1 mph from Northwest

Location: Feldkirch

Current Time: Aug 29, 2016 at 5:55:40 AM

Latest Report: Aug 29, 2016 at 5:00 AM


Visibility: N/A

Pressure: 30.05 "Hg

Humidity: 90%

Dew Point: 63 °F

Location of GötzisLocation

Past Weather in Götzis — Graph

°F

Götzis Temperature Yesterday

Maximum temperature yesterday: 87 °F (at 3:00 PM)
Minimum temperature yesterday: 65 °F (at 7:00 AM)
Average temperature yesterday: 76 °F

High & Low Weather Summary for the Past Weeks

 TemperatureHumidityPressure
High87 °F (Aug 28, 3:00 PM)98% (Aug 25, 7:00 AM)30.39 "Hg (Aug 25, 7:00 AM)
Low53 °F (Aug 23, 6:00 AM)48% (Aug 28, 4:00 PM)29.77 "Hg (Aug 18, 2:00 PM)
Average69 °F74%30.05 "Hg
* Reported Aug 14 6:00 AM — Aug 29 4:00 AM, Götzis, Weather by CustomWeather, © 2016

Note: Actual official high and low records may vary slightly from our data, if they occured in-between our weather recording intervals... More about our weather records

Advertising

Götzis Weather History for the Previous 24 Hours

Scroll right to see more
 ConditionsComfort  
Time TempWeatherWind HumidityBarometerVisibility
4:00 AM
Mon, Aug 29
67 °FMild.1 mph84%30.04 "HgN/A
3:00 AM68 °FMild.1 mph81%30.04 "HgN/A
2:00 AM68 °FMild.1 mph81%30.05 "HgN/A
1:00 AM70 °FMild.1 mph77%30.04 "HgN/A
12:00 AM72 °FMild.1 mph75%30.03 "HgN/A
11:00 PM
Sun, Aug 28
74 °FMild.2 mph75%30.02 "HgN/A
10:00 PM74 °FMild.No wind77%30.00 "HgN/A
9:00 PM75 °FMild.No wind75%29.98 "HgN/A
8:00 PM79 °FWarm.1 mph70%29.95 "HgN/A
7:00 PM84 °FWarm.1 mph55%29.93 "HgN/A
6:00 PM85 °FWarm.1 mph54%29.93 "HgN/A
5:00 PM83 °FWarm.1 mph54%29.94 "HgN/A
4:00 PM87 °FWarm.1 mph48%29.93 "HgN/A
3:00 PM87 °FWarm.1 mph51%29.95 "HgN/A
2:00 PM86 °FWarm.No wind52%29.97 "HgN/A
1:00 PM85 °FWarm.1 mph50%29.99 "HgN/A
12:00 PM83 °FWarm.1 mph54%30.01 "HgN/A
11:00 AM79 °FPassing clouds.1 mph58%30.04 "Hg16 mi
10:00 AM76 °FMild.1 mph62%30.05 "HgN/A
9:00 AM70 °FMild.No wind71%30.06 "HgN/A
8:00 AM68 °FMild.1 mph75%30.06 "HgN/A
7:00 AM65 °FMild.1 mph85%30.06 "HgN/A
6:00 AM67 °FMild.1 mph80%30.05 "HgN/A
5:00 AM69 °FMild.1 mph74%30.04 "HgN/A
Weather by CustomWeather, © 2016

See weather overviewHow to use our weather pages